TimeHST,TemperatureF,Dew PointF,Humidity,Sea Level PressureIn,VisibilityMPH,Wind Direction,Wind SpeedMPH,Gust SpeedMPH,PrecipitationIn,Events,Conditions,WindDirDegrees,DateUTC
12:55 AM,68.2,64.9,89,30.06,10.0,Calm,Calm,-,N/A,,Mostly Cloudy,0,2013-04-20 10:55:00
1:55 AM,68.4,63.9,85,30.04,10.0,Calm,Calm,-,N/A,,Overcast,0,2013-04-20 11:55:00
2:55 AM,67.5,63.3,87,30.02,10.0,WNW,3.5,-,N/A,,Overcast,290,2013-04-20 12:55:00
3:55 AM,65.8,63.0,90,30.01,10.0,Calm,Calm,-,N/A,,Scattered Clouds,0,2013-04-20 13:55:00
4:55 AM,65.1,62.8,92,30.02,10.0,Calm,Calm,-,N/A,,Clear,0,2013-04-20 14:55:00
5:55 AM,63.5,61.9,94,30.04,10.0,Calm,Calm,-,N/A,,Clear,0,2013-04-20 15:55:00
6:55 AM,64.6,63.0,94,30.05,10.0,Calm,Calm,-,N/A,,Clear,0,2013-04-20 16:55:00
7:55 AM,70.9,65.3,82,30.06,10.0,Calm,Calm,-,N/A,,Clear,0,2013-04-20 17:55:00
8:55 AM,75.9,64.6,68,30.06,10.0,SE,3.5,-,N/A,,Partly Cloudy,140,2013-04-20 18:55:00
9:55 AM,76.8,64.2,65,30.07,10.0,Variable,6.9,-,N/A,,Mostly Cloudy,0,2013-04-20 19:55:00
10:55 AM,79.7,64.2,59,30.06,10.0,ESE,4.6,-,N/A,,Mostly Cloudy,120,2013-04-20 20:55:00
11:55 AM,78.6,64.0,61,30.04,10.0,Calm,Calm,-,N/A,,Mostly Cloudy,0,2013-04-20 21:55:00
12:55 PM,76.6,65.1,67,30.03,10.0,Calm,Calm,-,N/A,,Overcast,0,2013-04-20 22:55:00
1:55 PM,78.1,65.3,65,30.01,10.0,SE,4.6,-,N/A,,Overcast,130,2013-04-20 23:55:00
2:08 PM,78.8,66.2,65,30.00,10.0,SSE,3.5,-,N/A,Rain,Light Rain,160,2013-04-21 00:08:00
2:17 PM,78.8,64.4,61,29.99,10.0,ESE,5.8,-,N/A,,Scattered Clouds,110,2013-04-21 00:17:00
2:55 PM,77.4,65.7,67,29.99,10.0,ENE,4.6,-,0.00,,Overcast,60,2013-04-21 00:55:00
3:55 PM,76.3,65.1,68,29.99,10.0,Variable,4.6,-,N/A,,Overcast,0,2013-04-21 01:55:00
4:55 PM,76.5,65.5,69,29.99,10.0,Variable,3.5,-,N/A,,Overcast,0,2013-04-21 02:55:00
5:55 PM,74.8,65.5,73,29.99,10.0,Calm,Calm,-,N/A,,Overcast,0,2013-04-21 03:55:00
6:32 PM,73.4,66.2,78,30.00,10.0,SSE,5.8,-,N/A,,Overcast,150,2013-04-21 04:32:00
6:42 PM,73.4,66.2,78,30.01,10.0,Variable,4.6,-,N/A,,Overcast,0,2013-04-21 04:42:00
6:54 PM,73.4,66.2,78,30.01,10.0,SE,5.8,-,N/A,,Overcast,130,2013-04-21 04:54:00
6:55 PM,72.7,65.8,79,30.01,10.0,Variable,5.8,-,N/A,,Overcast,0,2013-04-21 04:55:00
6:56 PM,73.4,66.2,78,30.01,10.0,SSE,5.8,-,N/A,,Overcast,150,2013-04-21 04:56:00
7:39 PM,71.6,66.2,83,30.02,10.0,Calm,Calm,-,N/A,,Overcast,0,2013-04-21 05:39:00
7:46 PM,71.6,66.2,83,30.02,10.0,SSE,3.5,-,N/A,,Light Drizzle,150,2013-04-21 05:46:00
7:52 PM,71.6,66.2,83,30.03,10.0,WSW,3.5,-,N/A,,Overcast,250,2013-04-21 05:52:00
7:55 PM,71.2,65.8,83,30.03,10.0,West,3.5,-,0.00,,Overcast,260,2013-04-21 05:55:00
8:10 PM,71.6,66.2,83,30.03,10.0,Calm,Calm,-,N/A,,Mostly Cloudy,0,2013-04-21 06:10:00
8:11 PM,71.6,66.2,83,30.03,10.0,Calm,Calm,-,N/A,,Mostly Cloudy,0,2013-04-21 06:11:00
8:22 PM,71.6,66.2,83,30.03,10.0,South,3.5,-,N/A,,Mostly Cloudy,190,2013-04-21 06:22:00
8:34 PM,71.6,66.2,83,30.03,10.0,Calm,Calm,-,N/A,,Mostly Cloudy,0,2013-04-21 06:34:00
8:55 PM,70.5,65.7,85,30.04,10.0,Calm,Calm,-,N/A,,Overcast,0,2013-04-21 06:55:00
9:01 PM,69.8,66.2,88,30.04,10.0,Calm,Calm,-,N/A,,Overcast,0,2013-04-21 07:01:00
9:16 PM,69.8,66.2,88,30.04,10.0,Calm,Calm,-,N/A,,Scattered Clouds,0,2013-04-21 07:16:00
9:55 PM,69.1,65.5,88,30.05,10.0,Calm,Calm,-,N/A,,Partly Cloudy,0,2013-04-21 07:55:00
10:55 PM,67.1,64.0,90,30.05,10.0,Calm,Calm,-,N/A,,Clear,0,2013-04-21 08:55:00
11:55 PM,65.5,63.7,94,30.03,10.0,West,3.5,-,N/A,,Clear,280,2013-04-21 09:55:00